| time (UTC) | temp C | wind direction | speed KPH | gust KPH | rain 1hr cm | rain 24hr cm | rain mn cm | humidity % | barometer mb |
| 20260504081600 | 14 | 293 | 0.0 | 0.0 | 0.00 | 0.00 | 0.00 | 75 | 1008.1 |
| 20260504044541 | 18 | 227 | 0.0 | 0.0 | 0.00 | 0.00 | 0.00 | 54 | 1007.8 |
| 20260504043048 | 19 | 222 | 0.0 | 0.0 | 0.00 | 0.00 | 0.00 | 55 | 1007.8 |
| 20260504041540 | 19 | 103 | 0.0 | 0.0 | 0.00 | 0.00 | 0.00 | 53 | 1007.8 |
| 20260504040041 | 20 | 103 | 0.0 | 0.0 | 0.00 | 0.00 | 0.00 | 52 | 1007.9 |
| 20260504034539 | 20 | 103 | 0.0 | 0.0 | 0.00 | 0.00 | 0.00 | 53 | 1007.8 |
| 20260504033041 | 20 | 103 | 0.0 | 0.0 | 0.00 | 0.00 | 0.00 | 50 | 1007.8 |
| 20260504031541 | 21 | 103 | 0.0 | 0.0 | 0.00 | 0.00 | 0.00 | 51 | 1007.7 |
| 20260504030037 | 22 | 103 | 0.0 | 0.0 | 0.00 | 0.00 | 0.00 | 48 | 1007.8 |
| 20260504024537 | 22 | 103 | 0.0 | 0.0 | 0.00 | 0.00 | 0.00 | 47 | 1007.8 |
| 20260504023037 | 22 | 103 | 0.0 | 0.0 | 0.00 | 0.00 | 0.00 | 46 | 1007.9 |
| 20260504021535 | 23 | 104 | 0.0 | 0.0 | 0.00 | 0.00 | 0.00 | 46 | 1008.0 |
| 20260504020033 | 23 | 103 | 0.0 | 0.0 | 0.00 | 0.00 | 0.00 | 42 | 1008.1 |
| 20260504014538 | 24 | 221 | 0.0 | 0.0 | 0.00 | 0.00 | 0.00 | 38 | 1008.2 |
| 20260504013033 | 25 | 21 | 0.0 | 0.0 | 0.00 | 0.00 | 0.00 | 38 | 1008.4 |
| 20260504011529 | 25 | 306 | 0.0 | 3.2 | 0.00 | 0.00 | 0.00 | 34 | 1008.6 |
| 20260504010027 | 26 | 264 | 0.0 | 4.8 | 0.00 | 0.00 | 0.00 | 33 | 1008.7 |
| 20260504004524 | 26 | 202 | 0.0 | 0.0 | 0.00 | 0.00 | 0.00 | 34 | 1008.8 |
| 20260504003028 | 26 | 124 | 0.0 | 4.8 | 0.00 | 0.00 | 0.00 | 34 | 1009.0 |
| 20260504001520 | 27 | 59 | 0.0 | 4.8 | 0.00 | 0.00 | 0.00 | 32 | 1009.1 |
| 20260504000018 | 27 | 306 | 0.0 | 4.8 | 0.00 | 0.00 | 0.00 | 32 | 1009.3 |
| 20260503234517 | 28 | 95 | 0.0 | 1.6 | 0.00 | 0.00 | 0.00 | 31 | 1009.6 |
| 20260503233013 | 27 | 309 | 0.0 | 6.4 | 0.00 | 0.00 | 0.00 | 32 | 1009.7 |
| 20260503231524 | 27 | 328 | 0.0 | 4.8 | 0.00 | 0.00 | 0.00 | 33 | 1009.9 |
| 20260503230008 | 28 | 288 | 0.0 | 3.2 | 0.00 | 0.00 | 0.00 | 34 | 1010.1 |
| 20260503224518 | 27 | 296 | 0.0 | 4.8 | 0.00 | 0.00 | 0.00 | 35 | 1010.3 |
| 20260503223002 | 26 | 75 | 0.0 | 8.0 | 0.00 | 0.00 | 0.00 | 34 | 1010.5 |
| 20260503221605 | 26 | 121 | 0.0 | 4.8 | 0.00 | 0.00 | 0.00 | 34 | 1010.8 |
| 20260503220116 | 26 | 106 | 1.6 | 6.4 | 0.00 | 0.00 | 0.00 | 36 | 1010.9 |
| 20260503214556 | 26 | 340 | 0.0 | 8.0 | 0.00 | 0.00 | 0.00 | 36 | 1011.2 |
| 20260503213054 | 26 | 63 | 0.0 | 6.4 | 0.00 | 0.00 | 0.00 | 37 | 1011.3 |
| 20260503211556 | 26 | 57 | 0.0 | 11.3 | 0.00 | 0.00 | 0.00 | 38 | 1011.4 |
| 20260503210050 | 26 | 38 | 0.0 | 8.0 | 0.00 | 0.00 | 0.00 | 37 | 1011.5 |
| 20260503204548 | 26 | 51 | 0.0 | 8.0 | 0.00 | 0.00 | 0.00 | 39 | 1011.8 |
| 20260503203052 | 26 | 288 | 0.0 | 8.0 | 0.00 | 0.00 | 0.00 | 41 | 1011.9 |
| 20260503201545 | 26 | 18 | 0.0 | 3.2 | 0.00 | 0.00 | 0.00 | 42 | 1012.1 |
| 20260503200040 | 26 | 20 | 0.0 | 8.0 | 0.00 | 0.00 | 0.00 | 43 | 1012.3 |
| 20260503194639 | 26 | 269 | 0.0 | 8.0 | 0.00 | 0.00 | 0.00 | 45 | 1012.4 |
| 20260503193040 | 26 | 124 | 0.0 | 6.4 | 0.00 | 0.00 | 0.00 | 45 | 1012.7 |
| 20260503191538 | 26 | 106 | 0.0 | 1.6 | 0.00 | 0.00 | 0.00 | 45 | 1012.8 |
| 20260503190132 | 26 | 70 | 0.0 | 3.2 | 0.00 | 0.00 | 0.00 | 45 | 1013.0 |
| 20260503184531 | 26 | 82 | 0.0 | 1.6 | 0.00 | 0.00 | 0.00 | 42 | 1013.1 |
| 20260503183028 | 25 | 333 | 0.0 | 6.4 | 0.00 | 0.00 | 0.00 | 44 | 1013.1 |
| 20260503181526 | 25 | 111 | 0.0 | 1.6 | 0.00 | 0.00 | 0.00 | 45 | 1013.1 |
| 20260503180035 | 24 | 189 | 0.0 | 1.6 | 0.00 | 0.00 | 0.00 | 46 | 1013.2 |
| 20260503174523 | 24 | 178 | 0.0 | 1.6 | 0.00 | 0.00 | 0.00 | 48 | 1013.3 |
| 20260503173022 | 23 | 166 | 0.0 | 3.2 | 0.00 | 0.00 | 0.00 | 49 | 1013.4 |
| 20260503171524 | 23 | 158 | 0.0 | 1.6 | 0.00 | 0.00 | 0.00 | 50 | 1013.6 |